Location: Pian di Sc�
(43.6333°N, 11.5500°E)
Time: 17:28:07
(UTC+00:00)

Cosmos 2279 Rocket - Pass Details

Date: 07 August 2020
Orbit: 965 x 978 km, 82.9° (Epoch: 17 September)

Event Time Altitude Azimuth Distance (km) Brightness Sun altitude
Exits shadow 01:44:42 41° 223° (SW) 1,370 4.3 -21.5°
Maximum altitude 01:46:42 59° 281° (W) 1,104 4.1 -21.2°
Drops below altitude 10° 01:52:50 10° 1° (N) 2,716 7.0 -20.6°
Sets 01:55:24 0° 5° (N) 3,668 7.9 -20.3°
